QPF
0.12 0.07 0.07 0.08 0.08 0.07 0.06 0.06 0.05 0.04 0.04 0.05 0.05 0.04 0.03 0.01 0.01 0.01 0.01 0.00 0.00 0.00 0.00 0.01 0.02 0.02 0.02 0.03 0.04 0.04 0.05 0.05 0.06 0.08 0.06 0.03 0.02 0.02 0.01 0.01 0.01 0.00 0.00 0.00
0.10 0.06 0.03 0.03 0.05 0.06 0.08 0.08 0.05 0.04 0.05 0.07 0.05 0.03 0.02 0.01 0.01 0.01 0.01 0.00 0.00 0.00 0.00 0.00 0.01 0.02 0.03 0.03 0.04 0.04 0.05 0.05 0.05 0.06 0.05 0.03 0.02 0.02 0.01 0.01 0.01 0.00 0.00 0.00
0.07 0.04 0.02 0.02 0.03 0.03 0.05 0.06 0.05 0.04 0.04 0.06 0.05 0.03 0.02 0.01 0.00 0.00 0.00 0.00 0.00 0.00 0.00 0.00 0.01 0.02 0.03 0.04 0.04 0.04 0.05 0.05 0.04 0.05 0.06 0.05 0.03 0.03 0.02 0.01 0.01 0.00 0.00 0.00
0.05 0.05 0.02 0.02 0.02 0.02 0.03 0.03 0.04 0.04 0.05 0.06 0.06 0.05 0.01 0.00 0.00 0.00 0.00 0.00 0.00 0.00 0.00 0.00 0.00 0.01 0.02 0.03 0.04 0.04 0.05 0.05 0.05 0.06 0.05 0.05 0.04 0.02 0.01 0.01 0.00 0.00 0.00 0.00
0.04 0.05 0.04 0.02 0.01 0.01 0.03 0.02 0.03 0.04 0.04 0.05 0.04 0.04 0.01 0.00 0.00 0.00 0.00 0.00 0.01 0.01 0.01 0.00 0.00 0.01 0.02 0.03 0.04 0.05 0.05 0.06 0.06 0.06 0.05 0.04 0.04 0.03 0.02 0.01 0.00 0.00 0.00 0.00
0.03 0.05 0.05 0.02 0.01 0.01 0.02 0.03 0.04 0.04 0.05 0.04 0.02 0.03 0.01 0.01 0.01 0.01 0.00 0.00 0.01 0.01 0.01 0.01 0.00 0.01 0.01 0.03 0.04 0.05 0.05 0.06 0.07 0.07 0.05 0.03 0.03 0.04 0.04 0.03 0.01 0.00 0.00 0.00
0.03 0.05 0.04 0.02 0.02 0.02 0.02 0.04 0.07 0.08 0.07 0.04 0.01 0.01 0.02 0.02 0.01 0.01 0.00 0.01 0.01 0.01 0.01 0.01 0.01 0.01 0.01 0.02 0.04 0.05 0.05 0.05 0.07 0.08 0.06 0.02 0.02 0.03 0.04 0.04 0.02 0.01 0.00 0.00
0.04 0.04 0.04 0.04 0.04 0.03 0.02 0.03 0.05 0.06 0.06 0.03 0.01 0.01 0.03 0.02 0.01 0.00 0.00 0.00 0.00 0.01 0.01 0.01 0.01 0.01 0.01 0.02 0.03 0.04 0.05 0.05 0.05 0.07 0.08 0.04 0.02 0.02 0.02 0.03 0.03 0.02 0.01 0.00
0.05 0.04 0.03 0.04 0.03 0.03 0.03 0.02 0.02 0.05 0.05 0.03 0.02 0.01 0.02 0.02 0.01 0.00 0.00 0.00 0.00 0.00 0.01 0.01 0.01 0.00 0.01 0.02 0.03 0.03 0.05 0.05 0.05 0.05 0.06 0.07 0.04 0.02 0.01 0.01 0.02 0.02 0.02 0.01
0.04 0.05 0.03 0.04 0.04 0.03 0.04 0.03 0.02 0.04 0.04 0.03 0.02 0.01 0.02 0.04 0.02 0.01 0.01 0.00 0.00 0.00 0.01 0.01 0.01 0.01 0.01 0.02 0.03 0.03 0.04 0.04 0.04 0.04 0.04 0.05 0.06 0.04 0.01 0.01 0.01 0.01 0.02 0.01
0.03 0.05 0.03 0.04 0.04 0.04 0.03 0.04 0.03 0.03 0.03 0.03 0.02 0.03 0.04 0.04 0.03 0.01 0.01 0.01 0.01 0.00 0.01 0.01 0.01 0.01 0.01 0.01 0.02 0.03 0.04 0.04 0.04 0.05 0.04 0.04 0.04 0.05 0.03 0.01 0.01 0.01 0.01 0.01
0.03 0.05 0.03 0.03 0.03 0.03 0.03 0.03 0.03 0.03 0.02 0.02 0.02 0.02 0.02 0.02 0.01 0.01 0.01 0.01 0.01 0.00 0.01 0.01 0.01 0.01 0.01 0.01 0.02 0.03 0.03 0.04 0.04 0.04 0.04 0.03 0.03 0.04 0.04 0.03 0.01 0.01 0.01 0.01
0.04 0.05 0.04 0.02 0.02 0.02 0.02 0.02 0.02 0.02 0.02 0.02 0.02 0.01 0.01 0.01 0.01 0.01 0.01 0.01 0.01 0.00 0.01 0.02 0.02 0.01 0.01 0.01 0.01 0.02 0.03 0.03 0.04 0.04 0.04 0.03 0.03 0.02 0.04 0.04 0.02 0.01 0.01 0.01
0.06 0.06 0.03 0.02 0.01 0.01 0.02 0.02 0.01 0.02 0.04 0.03 0.02 0.01 0.00 0.00 0.00 0.00 0.00 0.00 0.00 0.00 0.01 0.01 0.02 0.02 0.01 0.01 0.01 0.01 0.02 0.03 0.03 0.04 0.04 0.04 0.03 0.02 0.02 0.04 0.03 0.02 0.01 0.01
0.06 0.05 0.02 0.01 0.01 0.01 0.01 0.01 0.01 0.01 0.02 0.02 0.01 0.00 0.00 0.00 0.00 0.00 0.00 0.00 0.00 0.00 0.01 0.01 0.02 0.03 0.02 0.01 0.01 0.01 0.02 0.03 0.03 0.03 0.04 0.04 0.03 0.03 0.03 0.03 0.04 0.03 0.02 0.01
0.04 0.03 0.01 0.01 0.00 0.00 0.01 0.01 0.00 0.01 0.01 0.01 0.01 0.01 0.00 0.00 0.00 0.00 0.00 0.00 0.00 0.00 0.00 0.01 0.01 0.02 0.02 0.01 0.00 0.01 0.01 0.02 0.02 0.02 0.02 0.02 0.02 0.02 0.02 0.03 0.04 0.04 0.03 0.02
0.03 0.03 0.03 0.01 0.00 0.01 0.01 0.01 0.01 0.01 0.01 0.01 0.01 0.01 0.00 0.00 0.01 0.01 0.01 0.01 0.01 0.00 0.00 0.00 0.00 0.01 0.01 0.01 0.01 0.01 0.01 0.01 0.01 0.02 0.01 0.02 0.02 0.02 0.02 0.03 0.05 0.05 0.04 0.03
0.02 0.03 0.05 0.03 0.01 0.02 0.01 0.01 0.01 0.01 0.01 0.00 0.01 0.00 0.01 0.01 0.01 0.01 0.01 0.01 0.01 0.01 0.01 0.01 0.01 0.00 0.01 0.01 0.01 0.00 0.01 0.01 0.01 0.01 0.01 0.01 0.01 0.01 0.02 0.03 0.04 0.05 0.05 0.03
0.01 0.04 0.06 0.04 0.02 0.01 0.01 0.01 0.02 0.02 0.01 0.00 0.00 0.00 0.00 0.01 0.01 0.01 0.01 0.01 0.01 0.01 0.01 0.01 0.01 0.01 0.01 0.01 0.01 0.01 0.01 0.01 0.01 0.01 0.01 0.01 0.01 0.01 0.01 0.02 0.03 0.04 0.05 0.05
0.01 0.03 0.06 0.04 0.03 0.01 0.02 0.02 0.01 0.01 0.01 0.00 0.00 0.01 0.01 0.01 0.02 0.01 0.01 0.01 0.01 0.01 0.01 0.01 0.01 0.01 0.01 0.01 0.01 0.01 0.01 0.01 0.00 0.00 0.00 0.00 0.01 0.01 0.01 0.01 0.02 0.04 0.05 0.05
0.02 0.04 0.05 0.03 0.03 0.02 0.02 0.02 0.01 0.02 0.02 0.01 0.01 0.01 0.01 0.02 0.02 0.01 0.01 0.01 0.01 0.01 0.01 0.01 0.01 0.01 0.01 0.01 0.01 0.01 0.01 0.01 0.00 0.00 0.00 0.00 0.00 0.00 0.01 0.01 0.01 0.03 0.04 0.04
0.00 0.01 0.02 0.02 0.03 0.02 0.02 0.02 0.02 0.02 0.02 0.01 0.01 0.01 0.01 0.01 0.01 0.01 0.01 0.01 0.01 0.01 0.01 0.01 0.01 0.01 0.01 0.02 0.02 0.01 0.01 0.01 0.01 0.00 0.01 0.00 0.00 0.01 0.01 0.01 0.01 0.02 0.03 0.04
0.00 0.00 0.01 0.01 0.01 0.02 0.02 0.03 0.02 0.01 0.01 0.01 0.00 0.01 0.01 0.01 0.01 0.01 0.01 0.01 0.01 0.02 0.01 0.01 0.01 0.01 0.01 0.01 0.02 0.02 0.02 0.01 0.01 0.01 0.01 0.01 0.01 0.01 0.01 0.01 0.02 0.02 0.03 0.03
0.00 0.00 0.00 0.00 0.00 0.01 0.02 0.02 0.02 0.01 0.01 0.00 0.00 0.00 0.00 0.00 0.01 0.01 0.01 0.02 0.02 0.02 0.02 0.01 0.01 0.01 0.01 0.01 0.01 0.02 0.02 0.02 0.01 0.01 0.01 0.01 0.01 0.01 0.02 0.01 0.01 0.02 0.02 0.02
0.00 0.00 0.00 0.00 0.00 0.00 0.01 0.01 0.02 0.01 0.01 0.00 0.00 0.00 0.00 0.00 0.00 0.01 0.01 0.02 0.02 0.03 0.03 0.02 0.01 0.01 0.02 0.01 0.01 0.02 0.02 0.02 0.02 0.02 0.02 0.02 0.02 0.02 0.02 0.02 0.02 0.02 0.02 0.02
0.00 0.00 0.00 0.00 0.00 0.00 0.00 0.01 0.01 0.02 0.02 0.01 0.01 0.00 0.00 0.00 0.00 0.01 0.01 0.02 0.02 0.03 0.03 0.02 0.01 0.01 0.01 0.02 0.01 0.02 0.02 0.02 0.02 0.02 0.02 0.02 0.02 0.02 0.02 0.02 0.02 0.03 0.02 0.03
MSLP
1016.71 1016.57 1016.44 1016.29 1016.10 1015.83 1015.45 1014.92 1014.26 1013.46 1012.55 1011.58 1010.59 1009.62 1008.71 1007.87 1007.11 1006.41 1005.74 1005.10 1004.47 1003.86 1003.29 1002.80 1002.45 1002.28 1002.31 1002.58 1003.07 1003.75 1004.57 1005.45 1006.33 1007.16 1007.91 1008.55 1009.11 1009.60 1010.06 1010.52 1011.02 1011.56 1012.14 1012.74
1016.56 1016.41 1016.28 1016.15 1015.99 1015.76 1015.39 1014.87 1014.18 1013.33 1012.35 1011.29 1010.22 1009.18 1008.23 1007.39 1006.65 1006.00 1005.41 1004.84 1004.26 1003.68 1003.10 1002.57 1002.14 1001.86 1001.79 1001.97 1002.39 1003.03 1003.85 1004.78 1005.73 1006.66 1007.49 1008.21 1008.83 1009.35 1009.81 1010.26 1010.72 1011.22 1011.75 1012.32
1016.46 1016.28 1016.15 1016.04 1015.91 1015.71 1015.37 1014.86 1014.15 1013.25 1012.21 1011.07 1009.91 1008.81 1007.81 1006.96 1006.25 1005.67 1005.16 1004.68 1004.19 1003.66 1003.09 1002.52 1002.00 1001.61 1001.41 1001.44 1001.74 1002.29 1003.07 1003.99 1004.98 1005.97 1006.89 1007.71 1008.40 1008.98 1009.48 1009.93 1010.37 1010.83 1011.32 1011.84
1016.40 1016.21 1016.08 1015.99 1015.89 1015.72 1015.42 1014.92 1014.21 1013.28 1012.18 1010.96 1009.73 1008.55 1007.51 1006.65 1005.97 1005.44 1005.03 1004.65 1004.25 1003.79 1003.25 1002.66 1002.07 1001.55 1001.19 1001.05 1001.17 1001.58 1002.24 1003.10 1004.07 1005.09 1006.08 1006.98 1007.76 1008.42 1008.98 1009.47 1009.92 1010.36 1010.82 1011.30
1016.40 1016.19 1016.06 1016.00 1015.94 1015.81 1015.55 1015.09 1014.39 1013.44 1012.30 1011.02 1009.71 1008.46 1007.37 1006.48 1005.82 1005.35 1005.02 1004.74 1004.44 1004.06 1003.56 1002.96 1002.31 1001.67 1001.15 1000.81 1000.73 1000.93 1001.42 1002.15 1003.06 1004.05 1005.07 1006.03 1006.89 1007.64 1008.28 1008.83 1009.31 1009.77 1010.22 1010.67
1016.42 1016.22 1016.11 1016.07 1016.06 1016.00 1015.80 1015.38 1014.70 1013.76 1012.59 1011.27 1009.89 1008.58 1007.43 1006.51 1005.84 1005.40 1005.13 1004.94 1004.73 1004.43 1003.99 1003.41 1002.71 1001.97 1001.29 1000.76 1000.45 1000.42 1000.69 1001.24 1002.01 1002.92 1003.90 1004.88 1005.81 1006.64 1007.36 1007.98 1008.53 1009.02 1009.49 1009.94
1016.44 1016.26 1016.19 1016.20 1016.25 1016.26 1016.13 1015.78 1015.15 1014.23 1013.06 1011.70 1010.28 1008.91 1007.70 1006.73 1006.04 1005.60 1005.36 1005.23 1005.09 1004.87 1004.49 1003.93 1003.22 1002.41 1001.60 1000.88 1000.36 1000.08 1000.11 1000.43 1001.01 1001.78 1002.68 1003.63 1004.57 1005.45 1006.24 1006.95 1007.58 1008.13 1008.64 1009.11
1016.44 1016.30 1016.28 1016.36 1016.49 1016.58 1016.53 1016.26 1015.69 1014.81 1013.66 1012.30 1010.85 1009.43 1008.16 1007.14 1006.40 1005.94 1005.69 1005.58 1005.49 1005.32 1005.00 1004.48 1003.77 1002.93 1002.03 1001.17 1000.45 999.96 999.74 999.81 1000.16 1000.74 1001.49 1002.35 1003.26 1004.16 1005.00 1005.78 1006.48 1007.11 1007.68 1008.21
1016.36 1016.28 1016.33 1016.50 1016.71 1016.89 1016.94 1016.75 1016.25 1015.43 1014.32 1012.98 1011.52 1010.07 1008.76 1007.68 1006.88 1006.36 1006.08 1005.95 1005.87 1005.73 1005.45 1004.98 1004.30 1003.46 1002.52 1001.57 1000.71 1000.02 999.58 999.41 999.52 999.87 1000.44 1001.17 1001.99 1002.85 1003.71 1004.54 1005.31 1006.01 1006.66 1007.24
1016.20 1016.20 1016.33 1016.58 1016.88 1017.14 1017.27 1017.15 1016.73 1015.98 1014.92 1013.62 1012.19 1010.74 1009.40 1008.28 1007.42 1006.83 1006.48 1006.30 1006.19 1006.05 1005.79 1005.36 1004.73 1003.92 1002.99 1002.01 1001.07 1000.25 999.63 999.24 999.12 999.24 999.60 1000.14 1000.83 1001.61 1002.45 1003.29 1004.11 1004.88 1005.59 1006.25
1015.93 1016.01 1016.23 1016.55 1016.92 1017.25 1017.43 1017.38 1017.01 1016.33 1015.33 1014.10 1012.72 1011.31 1009.98 1008.83 1007.92 1007.27 1006.84 1006.58 1006.41 1006.24 1005.98 1005.57 1004.99 1004.24 1003.37 1002.41 1001.46 1000.58 999.83 999.28 998.95 998.85 998.99 999.33 999.85 1000.52 1001.28 1002.10 1002.93 1003.75 1004.53 1005.25
1015.56 1015.72 1016.02 1016.40 1016.81 1017.16 1017.37 1017.33 1017.00 1016.37 1015.44 1014.29 1012.99 1011.65 1010.38 1009.25 1008.32 1007.61 1007.11 1006.77 1006.51 1006.28 1005.99 1005.60 1005.07 1004.39 1003.60 1002.72 1001.80 1000.92 1000.12 999.45 998.96 998.67 998.59 998.73 999.06 999.58 1000.24 1001.00 1001.82 1002.66 1003.49 1004.27
1015.12 1015.36 1015.70 1016.11 1016.52 1016.85 1017.02 1016.96 1016.63 1016.02 1015.16 1014.10 1012.91 1011.68 1010.50 1009.44 1008.54 1007.81 1007.26 1006.83 1006.50 1006.19 1005.86 1005.46 1004.96 1004.36 1003.66 1002.88 1002.05 1001.21 1000.41 999.69 999.09 998.64 998.37 998.31 998.45 998.79 999.32 1000.00 1000.78 1001.62 1002.48 1003.32
1014.65 1014.93 1015.29 1015.68 1016.04 1016.30 1016.38 1016.25 1015.88 1015.27 1014.46 1013.49 1012.44 1011.36 1010.32 1009.37 1008.54 1007.85 1007.27 1006.79 1006.38 1006.00 1005.61 1005.19 1004.72 1004.18 1003.58 1002.91 1002.19 1001.43 1000.66 999.93 999.25 998.68 998.26 998.01 997.97 998.14 998.53 999.10 999.82 1000.65 1001.52 1002.40
1014.17 1014.47 1014.82 1015.15 1015.40 1015.53 1015.48 1015.23 1014.78 1014.14 1013.37 1012.50 1011.59 1010.68 1009.82 1009.04 1008.34 1007.71 1007.16 1006.66 1006.19 1005.75 1005.31 1004.86 1004.40 1003.91 1003.38 1002.82 1002.20 1001.54 1000.84 1000.11 999.40 998.74 998.19 997.78 997.56 997.57 997.81 998.28 998.93 999.72 1000.60 1001.51
1013.69 1013.99 1014.28 1014.51 1014.62 1014.58 1014.36 1013.96 1013.40 1012.72 1011.97 1011.20 1010.44 1009.72 1009.07 1008.48 1007.94 1007.43 1006.95 1006.46 1005.97 1005.48 1004.99 1004.51 1004.04 1003.58 1003.13 1002.65 1002.13 1001.55 1000.91 1000.22 999.49 998.76 998.10 997.56 997.19 997.05 997.15 997.50 998.08 998.83 999.70 1000.64
1013.21 1013.47 1013.68 1013.78 1013.73 1013.50 1013.09 1012.53 1011.86 1011.13 1010.40 1009.71 1009.10 1008.58 1008.14 1007.76 1007.41 1007.05 1006.65 1006.21 1005.72 1005.21 1004.68 1004.18 1003.70 1003.26 1002.84 1002.43 1001.98 1001.48 1000.89 1000.22 999.47 998.70 997.95 997.29 996.80 996.52 996.50 996.75 997.25 997.96 998.83 999.78
1012.67 1012.87 1012.97 1012.94 1012.72 1012.32 1011.74 1011.04 1010.26 1009.49 1008.78 1008.18 1007.72 1007.38 1007.14 1006.97 1006.80 1006.58 1006.29 1005.92 1005.46 1004.94 1004.40 1003.88 1003.39 1002.95 1002.56 1002.18 1001.78 1001.33 1000.77 1000.11 999.35 998.53 997.70 996.95 996.35 995.96 995.83 996.00 996.43 997.10 997.96 998.92
1011.98 1012.11 1012.11 1011.95 1011.60 1011.05 1010.35 1009.54 1008.71 1007.92 1007.25 1006.74 1006.40 1006.22 1006.16 1006.16 1006.15 1006.07 1005.88 1005.58 1005.15 1004.65 1004.11 1003.58 1003.09 1002.66 1002.27 1001.92 1001.54 1001.10 1000.55 999.88 999.10 998.23 997.34 996.51 995.82 995.34 995.13 995.22 995.61 996.25 997.09 998.07
1011.06 1011.12 1011.03 1010.78 1010.34 1009.71 1008.94 1008.10 1007.26 1006.50 1005.89 1005.47 1005.25 1005.20 1005.27 1005.40 1005.51 1005.53 1005.42 1005.17 1004.79 1004.31 1003.78 1003.26 1002.77 1002.35 1001.97 1001.62 1001.24 1000.80 1000.24 999.55 998.73 997.82 996.87 995.97 995.21 994.66 994.39 994.43 994.78 995.40 996.23 997.22
1009.84 1009.83 1009.69 1009.39 1008.92 1008.28 1007.53 1006.72 1005.93 1005.25 1004.73 1004.41 1004.29 1004.33 1004.50 1004.70 1004.88 1004.95 1004.89 1004.68 1004.33 1003.88 1003.38 1002.88 1002.41 1001.99 1001.63 1001.27 1000.89 1000.43 999.85 999.12 998.26 997.30 996.30 995.35 994.53 993.94 993.63 993.64 993.96 994.57 995.41 996.40
1008.30 1008.24 1008.08 1007.78 1007.34 1006.76 1006.10 1005.40 1004.74 1004.18 1003.78 1003.56 1003.52 1003.63 1003.83 1004.07 1004.26 1004.34 1004.30 1004.10 1003.78 1003.35 1002.89 1002.42 1001.98 1001.59 1001.24 1000.88 1000.49 1000.01 999.39 998.62 997.71 996.71 995.67 994.68 993.83 993.21 992.88 992.87 993.19 993.80 994.64 995.66
1006.47 1006.39 1006.23 1005.98 1005.63 1005.18 1004.67 1004.14 1003.65 1003.25 1002.99 1002.87 1002.90 1003.05 1003.26 1003.48 1003.64 1003.70 1003.63 1003.44 1003.13 1002.74 1002.31 1001.89 1001.50 1001.15 1000.82 1000.47 1000.06 999.55 998.90 998.08 997.13 996.09 995.01 994.00 993.13 992.50 992.17 992.17 992.50 993.12 993.99 995.02
1004.45 1004.37 1004.25 1004.08 1003.85 1003.57 1003.25 1002.93 1002.65 1002.44 1002.32 1002.31 1002.39 1002.55 1002.74 1002.91 1003.02 1003.03 1002.93 1002.72 1002.42 1002.06 1001.69 1001.33 1001.00 1000.69 1000.39 1000.05 999.63 999.10 998.40 997.55 996.56 995.47 994.38 993.35 992.48 991.87 991.56 991.58 991.94 992.59 993.49 994.55
1002.41 1002.33 1002.26 1002.20 1002.11 1002.02 1001.91 1001.81 1001.73 1001.70 1001.72 1001.81 1001.94 1002.09 1002.24 1002.35 1002.39 1002.34 1002.20 1001.98 1001.69 1001.38 1001.07 1000.78 1000.51 1000.25 999.98 999.65 999.23 998.66 997.93 997.04 996.01 994.90 993.80 992.77 991.93 991.34 991.07 991.13 991.54 992.23 993.17 994.28
1000.51 1000.45 1000.44 1000.47 1000.53 1000.61 1000.70 1000.79 1000.91 1001.03 1001.18 1001.34 1001.49 1001.63 1001.74 1001.78 1001.76 1001.66 1001.49 1001.26 1001.00 1000.74 1000.49 1000.27 1000.07 999.86 999.62 999.30 998.86 998.26 997.50 996.57 995.51 994.39 993.29 992.28 991.47 990.93 990.72 990.85 991.31 992.07 993.06 994.22
Thickness
5496 5497 5502 5503 5501 5502 5509 5514 5519 5529 5534 5531 5537 5547 5558 5566 5571 5578 5585 5593 5603 5612 5622 5627 5633 5640 5645 5650 5654 5659 5661 5663 5666 5668 5670 5669 5670 5671 5671 5672 5672 5672 5672 5671
5497 5499 5502 5500 5497 5496 5499 5503 5514 5523 5526 5525 5534 5543 5554 5560 5566 5574 5580 5588 5597 5607 5614 5620 5627 5634 5640 5646 5651 5655 5658 5660 5663 5667 5669 5669 5668 5668 5668 5668 5668 5668 5668 5668
5493 5499 5497 5494 5493 5493 5499 5502 5507 5512 5518 5522 5525 5541 5554 5561 5565 5570 5577 5586 5593 5600 5608 5615 5621 5629 5635 5642 5647 5651 5655 5658 5661 5662 5663 5662 5662 5661 5662 5664 5665 5666 5666 5666
5491 5493 5490 5490 5492 5492 5496 5502 5500 5502 5504 5511 5516 5525 5553 5560 5561 5567 5574 5582 5589 5596 5603 5609 5615 5623 5631 5639 5644 5649 5652 5654 5657 5658 5660 5661 5662 5663 5666 5665 5664 5663 5663 5663
5490 5487 5484 5486 5490 5489 5493 5495 5494 5496 5499 5501 5516 5515 5547 5554 5556 5563 5570 5577 5584 5592 5598 5604 5610 5617 5626 5633 5639 5644 5647 5650 5653 5656 5659 5660 5661 5663 5663 5662 5661 5661 5661 5661
5484 5483 5480 5483 5486 5487 5488 5489 5493 5496 5497 5496 5519 5517 5539 5548 5550 5558 5566 5572 5579 5586 5593 5599 5605 5610 5618 5625 5632 5638 5643 5647 5651 5654 5657 5659 5660 5660 5660 5660 5660 5659 5659 5659
5483 5483 5478 5477 5480 5485 5482 5482 5486 5490 5493 5508 5521 5518 5535 5541 5544 5551 5558 5566 5573 5580 5587 5593 5598 5605 5612 5619 5627 5633 5639 5644 5648 5652 5655 5659 5659 5659 5659 5660 5659 5659 5658 5658
5469 5484 5478 5473 5473 5474 5478 5477 5478 5482 5496 5510 5512 5519 5534 5533 5538 5545 5552 5558 5564 5571 5578 5585 5592 5599 5607 5614 5622 5629 5635 5641 5645 5650 5653 5657 5658 5657 5658 5659 5660 5659 5660 5659
5457 5471 5473 5469 5468 5467 5471 5473 5476 5473 5480 5488 5510 5520 5526 5528 5532 5536 5541 5547 5553 5560 5568 5576 5584 5592 5600 5609 5616 5624 5632 5638 5643 5647 5651 5653 5656 5657 5658 5658 5658 5658 5658 5658
5445 5449 5465 5462 5461 5463 5464 5464 5465 5464 5468 5486 5505 5514 5520 5521 5523 5527 5531 5535 5542 5550 5559 5567 5575 5583 5592 5601 5610 5618 5627 5634 5639 5644 5647 5651 5654 5655 5656 5656 5656 5657 5657 5655
5439 5436 5455 5456 5456 5460 5456 5455 5456 5462 5465 5474 5490 5509 5513 5512 5513 5517 5522 5527 5533 5541 5550 5558 5566 5574 5583 5593 5602 5610 5619 5627 5633 5639 5644 5646 5649 5651 5652 5654 5655 5655 5654 5654
5435 5434 5443 5454 5456 5451 5450 5452 5452 5452 5454 5462 5474 5496 5507 5506 5508 5511 5514 5519 5525 5532 5540 5549 5557 5565 5574 5584 5593 5602 5610 5618 5627 5633 5638 5642 5645 5647 5648 5651 5652 5652 5652 5652
5430 5426 5437 5455 5449 5440 5438 5440 5439 5438 5442 5455 5464 5488 5500 5499 5501 5503 5505 5510 5517 5524 5531 5540 5548 5556 5564 5573 5583 5592 5601 5610 5618 5624 5630 5636 5639 5642 5645 5648 5649 5649 5649 5648
5429 5425 5431 5446 5451 5437 5431 5433 5432 5429 5435 5449 5462 5478 5488 5489 5490 5493 5497 5501 5508 5515 5521 5529 5537 5545 5553 5563 5572 5582 5591 5600 5608 5616 5622 5629 5635 5639 5642 5644 5645 5646 5646 5645
5422 5425 5426 5432 5435 5429 5427 5431 5431 5427 5434 5439 5459 5467 5478 5480 5482 5484 5489 5493 5499 5506 5511 5518 5525 5534 5543 5552 5561 5571 5580 5589 5598 5606 5614 5621 5627 5632 5635 5638 5640 5641 5641 5641
5413 5416 5420 5426 5431 5427 5425 5434 5436 5437 5438 5441 5446 5455 5467 5470 5473 5475 5480 5484 5490 5496 5502 5508 5515 5523 5532 5540 5549 5559 5569 5578 5587 5596 5605 5613 5618 5623 5628 5630 5633 5634 5635 5635
5408 5404 5408 5423 5427 5420 5427 5441 5440 5441 5443 5441 5443 5455 5460 5461 5463 5466 5470 5475 5480 5486 5492 5498 5505 5512 5521 5529 5537 5546 5558 5567 5576 5586 5595 5602 5609 5615 5620 5623 5625 5628 5629 5629
5400 5397 5398 5408 5408 5407 5444 5442 5437 5436 5437 5437 5439 5445 5448 5450 5456 5459 5461 5465 5471 5477 5482 5488 5495 5502 5510 5518 5527 5536 5546 5556 5566 5576 5585 5593 5599 5606 5611 5614 5618 5620 5621 5622
5400 5393 5395 5398 5405 5423 5437 5434 5427 5424 5430 5434 5434 5438 5440 5442 5447 5453 5454 5455 5460 5466 5472 5478 5485 5492 5499 5507 5516 5526 5536 5546 5557 5567 5575 5583 5590 5596 5601 5606 5610 5612 5613 5615
5392 5387 5388 5390 5392 5410 5437 5428 5421 5417 5423 5430 5428 5429 5431 5433 5437 5446 5446 5446 5450 5456 5461 5467 5473 5481 5490 5498 5506 5516 5526 5537 5547 5556 5565 5572 5580 5587 5593 5598 5602 5604 5606 5607
5382 5379 5381 5385 5390 5413 5426 5416 5410 5407 5423 5422 5421 5421 5421 5424 5428 5432 5435 5437 5440 5446 5451 5457 5463 5471 5480 5487 5496 5507 5517 5526 5536 5544 5554 5563 5570 5577 5584 5589 5592 5595 5597 5598
5392 5389 5383 5385 5385 5405 5417 5404 5405 5414 5415 5412 5412 5412 5413 5416 5419 5421 5424 5427 5431 5435 5441 5447 5453 5461 5470 5477 5486 5497 5506 5515 5525 5534 5544 5554 5561 5567 5573 5578 5582 5586 5588 5588
5395 5400 5400 5397 5409 5415 5408 5404 5405 5404 5404 5404 5404 5404 5405 5406 5410 5413 5415 5418 5422 5426 5431 5436 5442 5450 5459 5468 5476 5485 5495 5504 5514 5523 5534 5543 5551 5558 5563 5568 5572 5576 5579 5580
5394 5390 5388 5390 5403 5404 5399 5397 5396 5395 5395 5396 5396 5397 5397 5399 5402 5405 5407 5410 5412 5416 5421 5425 5431 5440 5449 5457 5465 5474 5484 5493 5503 5513 5524 5532 5540 5547 5553 5558 5563 5567 5570 5572
5395 5382 5381 5386 5397 5396 5395 5391 5390 5389 5388 5387 5387 5388 5389 5390 5394 5396 5398 5401 5404 5407 5411 5415 5421 5429 5438 5446 5455 5465 5473 5482 5492 5502 5512 5521 5529 5536 5542 5548 5553 5557 5562 5565
5389 5384 5382 5390 5396 5389 5392 5390 5386 5382 5381 5380 5380 5381 5383 5382 5385 5388 5391 5393 5395 5398 5402 5406 5412 5419 5428 5436 5446 5455 5463 5472 5481 5491 5501 5510 5517 5525 5531 5536 5540 5544 5549 5551